sat.trackr.live / text

‹ back to catalog

STARLINK-5622

NORAD 55358 · 2023-013AD

PAYLOAD ACTIVE UNKNOWN

§ Identity

Operator
Country
US
Launch date
2023-01-26
Launch site
AFETR
Launch vehicle
Mass (kg)
RCS (m²)

Purposes: comms

External: N2YO · Heavens-Above · Gunter

§ Orbital elements

Epoch: 2026-09-20T12:44:40.971264Z

Period
94.27 min
Inclination
43.0025°
Eccentricity
0.0001570
Mean motion
15.27574307 rev/d
Perigee alt
482.0 km
Apogee alt
484.1 km
Semi-major
6,861.2 km
B*
1.9598e-7
RAAN
282.8959°
Arg perigee
268.1825°
Mean anomaly
91.8846°
Rev number
20,147

§ Raw data

STARLINK-56221 55358U 23013AD  26263.53102976 -.00000257  00000+0  19598-6 0  99992 55358  43.0025 282.8959 0001570 268.1825  91.8846 15.27574307201471

JSON: /api/v1/satellites/55358 · /tle

For live sub-satellite position, see the globe view (requires WebGL).

§ Visibility from observer

Set your observer location to see the next 7 days of passes ≥ 10°. The values pass through the URL so the page stays shareable.

No JS? Fill the form by hand. The geolocation button needs JavaScript.